Terminal Aerodrome Forecast
Issued by NWS Des Moines, IA

Home | Current Version | Previous Version | Text Only | Print | Product List | Glossary On
Versions: 1 2 3 4 5 6 7 8 9 10 11 12 13 14 15 16 17 18 19 20 21 22 23 24 25 26 27 28 29 30 31 32 33 34 35 36 37 38 39 40 41 42 43 44 45 46 47 48
000
FTUS43 KDMX 281735
TAFALO
TAF
KALO 281735Z 2818/2918 VRB03KT P6SM SCT150
     FM290000 03005KT P6SM BKN120
     FM290700 03007KT P6SM SCT005 BKN070
     FM291000 02009KT P6SM -SN SCT005 BKN035=

USA.gov is the U.S. government's official web portal to all federal, state and local government web resources and services.